{"data":{"norad_id":62141,"epoch":"2026-09-21T19:01:38.295840Z","epoch_age_seconds":69866,"freshness":"FRESH","line1":"1 62141U 24224C   26264.79280435  .00017224  00000+0  63375-3 0  9998","line2":"2 62141  43.0020 130.4255 0000975 298.0094  62.0659 15.27592064102314","mean_motion":15.27592064,"eccentricity":9.75e-5,"inclination_deg":43.002,"raan_deg":130.4255,"arg_perigee_deg":298.0094,"mean_anomaly_deg":62.0659,"bstar":0.00063375,"rev_number":10231,"period_min":94.266004251774,"perigee_km":482.34401019909,"apogee_km":483.68193444369,"semimajor_km":6861.1499723214,"source":"CELESTRAK","updated_at":"2026-09-22T09:00:49.529313Z"}}